TimeEDT,TemperatureF,Dew PointF,Humidity,Sea Level PressureIn,VisibilityMPH,Wind Direction,Wind SpeedMPH,Gust SpeedMPH,PrecipitationIn,Events,Conditions,WindDirDegrees,DateUTC
12:51 AM,39.0,34.0,82,30.18,10.0,Calm,Calm,-,N/A,,Clear,0,2013-05-06 04:51:00
1:51 AM,37.0,32.0,82,30.17,10.0,Calm,Calm,-,N/A,,Clear,0,2013-05-06 05:51:00
2:51 AM,36.0,33.1,89,30.17,10.0,Calm,Calm,-,N/A,,Clear,0,2013-05-06 06:51:00
3:51 AM,33.1,30.0,89,30.17,10.0,Calm,Calm,-,N/A,,Clear,0,2013-05-06 07:51:00
4:51 AM,32.0,30.0,92,30.17,10.0,Calm,Calm,-,N/A,,Clear,0,2013-05-06 08:51:00
5:51 AM,32.0,30.0,92,30.17,10.0,Calm,Calm,-,N/A,,Clear,0,2013-05-06 09:51:00
6:51 AM,39.0,35.1,86,30.18,10.0,Calm,Calm,-,N/A,,Clear,0,2013-05-06 10:51:00
7:51 AM,53.1,39.0,59,30.18,10.0,Calm,Calm,-,N/A,,Clear,0,2013-05-06 11:51:00
8:51 AM,62.1,27.0,26,30.18,10.0,SW,6.9,-,N/A,,Clear,230,2013-05-06 12:51:00
9:51 AM,66.0,30.0,26,30.18,10.0,SW,3.5,-,N/A,,Clear,230,2013-05-06 13:51:00
10:51 AM,71.1,30.9,23,30.17,10.0,South,6.9,-,N/A,,Clear,180,2013-05-06 14:51:00
11:51 AM,73.0,28.9,20,30.16,10.0,SSW,10.4,-,N/A,,Clear,200,2013-05-06 15:51:00
12:51 PM,73.9,30.0,20,30.14,10.0,Variable,5.8,-,N/A,,Clear,0,2013-05-06 16:51:00
1:51 PM,75.0,28.9,18,30.12,10.0,Variable,5.8,17.3,N/A,,Clear,0,2013-05-06 17:51:00
2:51 PM,77.0,26.1,15,30.09,10.0,Calm,Calm,-,N/A,,Clear,0,2013-05-06 18:51:00
3:51 PM,77.0,25.0,15,30.08,10.0,WSW,8.1,-,N/A,,Clear,250,2013-05-06 19:51:00
4:51 PM,75.9,19.9,12,30.06,10.0,Variable,6.9,-,N/A,,Clear,0,2013-05-06 20:51:00
5:51 PM,75.9,19.0,12,30.05,10.0,SW,9.2,-,N/A,,Clear,230,2013-05-06 21:51:00
6:51 PM,75.0,21.0,13,30.03,10.0,SSW,6.9,-,N/A,,Clear,200,2013-05-06 22:51:00
7:51 PM,71.1,33.1,25,30.03,10.0,North,5.8,-,N/A,,Clear,350,2013-05-06 23:51:00
8:51 PM,59.0,36.0,42,30.06,10.0,Calm,Calm,-,N/A,,Clear,0,2013-05-07 00:51:00
9:51 PM,57.0,32.0,39,30.08,10.0,Calm,Calm,-,N/A,,Clear,0,2013-05-07 01:51:00
10:51 PM,46.0,33.1,61,30.10,10.0,Calm,Calm,-,N/A,,Clear,0,2013-05-07 02:51:00
11:51 PM,43.0,33.1,68,30.11,10.0,Calm,Calm,-,N/A,,Clear,0,2013-05-07 03:51:00